This is the latest recevied weather packets stored in our database for station/object N5COP-13. If no packets are shown the sender has not sent any weather packets the latest 10 day(s).
| Time | Temp. | Humidity | Pressure | Rain* | Wind** | Luminosity | Snow |
|---|---|---|---|---|---|---|---|
| 1777689125 | 7.22° C | 76% | 1021.7 hPa | 0 mm | - | 0 W/m² | - |
| 1777688822 | 7.22° C | 76% | 1021.8 hPa | 0 mm | - | 0 W/m² | - |
| 1777688519 | 7.22° C | 75% | 1021.8 hPa | 0 mm | - | 0 W/m² | - |
| 1777688216 | 7.78° C | 75% | 1021.6 hPa | 0 mm | - | 0 W/m² | - |
| 1777687913 | 7.78° C | 74% | 1021.5 hPa | 0 mm | - | 0 W/m² | - |
| 1777687610 | 7.78° C | 73% | 1021.3 hPa | 0 mm | - | 0 W/m² | - |
| 1777687307 | 8.33° C | 72% | 1021.3 hPa | 0 mm | - | 0 W/m² | - |
| 1777687005 | 8.33° C | 70% | 1021.2 hPa | 0 mm | - | 0 W/m² | - |
| 1777686701 | 8.89° C | 69% | 1021.2 hPa | 0 mm | - | 0 W/m² | - |
| 1777686399 | 9.44° C | 68% | 1021.1 hPa | 0 mm | - | 1 W/m² | - |
| 1777686096 | 9.44° C | 67% | 1021.1 hPa | 0 mm | - | 1 W/m² | - |
| 1777685792 | 10° C | 65% | 1020.9 hPa | 0 mm | - | 3 W/m² | - |
| 1777685487 | 10.56° C | 64% | 1020.7 hPa | 0 mm | - | 5 W/m² | - |
| 1777685185 | 10.56° C | 63% | 1021 hPa | 0 mm | - | 8 W/m² | - |
| 1777684883 | 11.11° C | 62% | 1020.8 hPa | 0 mm | - | 11 W/m² | - |
| 1777684579 | 11.67° C | 61% | 1020.8 hPa | 0 mm | - | 15 W/m² | - |
| 1777684275 | 11.67° C | 61% | 1020.7 hPa | 0 mm | - | 19 W/m² | - |
| 1777683973 | 11.67° C | 59% | 1020.6 hPa | 0 mm | - | 20 W/m² | - |
| 1777683669 | 11.67° C | 58% | 1020.8 hPa | 0 mm | - | 21 W/m² | - |
| 1777683367 | 12.22° C | 58% | 1020.6 hPa | 0 mm | - | 28 W/m² | - |
| 1777683064 | 12.78° C | 58% | 1020.6 hPa | 0 mm | - | 32 W/m² | - |
| 1777682760 | 12.78° C | 57% | 1020.4 hPa | 0 mm | - | 52 W/m² | - |
| 1777682456 | 13.33° C | 57% | 1020.6 hPa | 0 mm | - | 63 W/m² | - |
| 1777682155 | 13.33° C | 57% | 1020.4 hPa | 0 mm | - | 72 W/m² | - |
| 1777681851 | 13.33° C | 57% | 1020.3 hPa | 0 mm | - | 81 W/m² | - |
* Rain latest hour (hover to see other rain measurements)
** Current wind speed in m/s (hover to see current wind gust speed)